Location: Jihlava
(49.4000°N, 15.5830°E)
Time: 13:43:10
(UTC+02:00)

ISS - Visible Passes

Search period start: 22 May 2019 00:00
Search period end: 01 June 2019 00:00
Orbit: 407 x 410 km, 51.6° (Epoch: 22 May)

Date Brightness Start Highest point End Pass type
(mag) Time Alt. Az. Time Alt. Az. Time Alt. Az.
22 May -3.7 01:11:17 10° WNW 01:14:15 69° WNW 01:14:15 69° WNW visible
22 May -3.3 22:43:37 10° W 22:46:54 60° N 22:50:11 10° ENE visible
23 May -3.6 00:20:23 10° WNW 00:23:41 68° NNE 00:24:37 42° E visible
23 May -1.2 01:57:05 10° W 01:57:19 12° W 01:57:19 12° W visible
23 May -3.5 21:52:39 10° W 21:55:57 71° NNW 21:59:15 10° ENE visible
23 May -3.3 23:29:28 10° WNW 23:32:45 59° N 23:35:08 17° E visible
24 May -2.4 01:06:06 10° WNW 01:07:51 28° W 01:07:51 28° W visible
24 May -3.1 22:38:30 10° W 22:41:46 55° N 22:45:02 10° E visible
25 May -4.0 00:15:10 10° WNW 00:18:26 81° SW 00:18:26 81° SW visible
25 May -3.1 21:47:31 10° W 21:50:46 57° N 21:54:02 10° ENE visible
25 May -3.7 23:24:14 10° WNW 23:27:33 76° NNE 23:29:04 29° E visible
26 May -1.5 01:00:59 10° W 01:01:47 15° W 01:01:47 15° W visible
26 May -3.4 22:33:17 10° WNW 22:36:35 63° N 22:39:44 11° E visible
27 May -3.0 00:09:56 10° WNW 00:12:26 39° WSW 00:12:26 39° WSW visible
27 May -3.2 21:42:18 10° WNW 21:45:35 56° N 21:48:50 10° E visible
27 May -3.9 23:18:57 10° WNW 23:22:14 69° SSW 23:23:07 43° SE visible
28 May -3.8 22:27:59 10° WNW 22:31:17 87° NNE 22:33:50 16° ESE visible
29 May -2.0 00:04:51 10° W 00:06:32 20° WSW 00:06:32 20° WSW visible
29 May -3.5 21:37:00 10° WNW 21:40:18 69° NNE 21:43:35 10° E visible
29 May -3.1 23:13:41 10° W 23:16:46 37° SSW 23:17:16 34° S visible
30 May -3.6 22:22:37 10° WNW 22:25:52 56° SSW 22:28:00 19° SE visible
31 May -1.2 00:00:28 10° WSW 00:00:43 11° WSW 00:00:43 11° WSW visible
31 May -3.8 21:31:36 10° WNW 21:34:55 81° SSW 21:38:13 10° ESE visible
31 May -2.1 23:08:40 10° W 23:11:07 19° SW 23:11:29 19° SSW visible
